Regional Weather Roundup
Issued by NWS Newport/Morehead, NC

Current Version | Previous Version | Text Only | Print | Product List | Glossary Off
Versions: 1 2 3 4 5 6 7 8 9 10 11 12 13 14 15 16 17 18 19 20 21 22 23 24 25 26 27 28 29 30 31 32 33 34 35 36 37 38 39 40 41 42 43 44 45 46 47 48 49 50
209 ASUS42 KMHX 281625 RWRMHX WEATHER ROUNDUP FOR EASTERN NORTH CAROLINA NATIONAL WEATHER SERVICE NEWPORT/MOREHEAD CITY NC 1200 PM EDT SUN AUG 28 2016 NOTE: "FAIR" INDICATES FEW OR NO CLOUDS BELOW 12,000 FEET WITH NO SIGNIFICANT WEATHER AND/OR OBSTRUCTIONS TO VISIBILITY NCZ015>017-031-032-045>047-102-103-281700- NORTH COAST CITY SKY/WX TMP DP RH WIND PRES REMARKS EDENTON PTSUNNY 87 74 64 NE10 30.17S ELIZABETH CITY PTSUNNY 85 75 72 NE18 30.17S KITTY HAWK PTSUNNY 88 82 81 NE6 30.15S HX 106 MANTEO CLOUDY 84 77 79 E12 30.16S $$ NCZ045>047-081-094-103-104-281700- CENTRAL COAST CITY SKY/WX TMP DP RH WIND PRES REMARKS FRISCO RAIN 78 76 93 E6 30.15R FOG $$ NCZ095-097-098-100-101-281700- SOUTHERN COAST CITY SKY/WX TMP DP RH WIND PRES REMARKS BEAUFORT CLOUDY 84 75 74 N7 30.14R CEDAR ISLAND NOT AVBL JACKSONVILLE CLOUDY 83 74 74 N7 30.14F PINEY ISLAND NOT AVBL WILMINGTON CLOUDY 84 74 71 NE13 30.14F $$ NCZ011>013-027>030-043-044-078>080-089-090>093-098-281700- COASTAL PLAIN CITY SKY/WX TMP DP RH WIND PRES REMARKS AHOSKIE MOSUNNY 82 73 72 N10 30.19S CLINTON MOSUNNY 84 73 70 NE6 30.17F ELIZABETHTOWN MOSUNNY 83 71 66 N5 30.17S GOLDSBORO MOSUNNY 85 75 72 NE10 30.16F GREENVILLE MOSUNNY 86 73 66 NE8 30.17F HAVELOCK CLOUDY 84 77 79 N15 30.16R THUNDER KENANSVILLE CLOUDY 84 73 70 N8 30.17F KINSTON PTSUNNY 84 72 65 NE8G17 30.17F NEW BERN CLOUDY 83 74 74 N8 30.16F RICHLANDS CLOUDY 82 73 74 NE7 30.16F ROCKY MOUNT PTSUNNY 85 72 65 N10 30.19S WASHINGTON PTSUNNY 85 76 76 N8 30.15F WHITEVILLE MOSUNNY 85 73 66 NE7 30.14F $$ AMZ130-135-150-152-154-156-158-170-250-252-270-ANZ085-086-088-633-658-670-281700- MARINE OBSERVATIONS STATION/POSITION TIME TEMP WIND PRES WAVE SWELL AIR SEA DIR/SP/G HT/PER HT/PER (UTC) (F) (DEG/KT/KT) (MB) (FT/S) (FT/S) CHESAPEAKE LIGHT NOT AVBL 64 E VA BEACH 1550 81 81 50/ 12/ 16 1021.0 4/ 6 3/ 6 DUCK 1600 80 77 40/ 14/ 15 1020.8 2 E DUCK 1511 79 N/A 4/ 6 OREGON INLET 1600 82 78 30/ 8/ 9 1020.9 13E OREGON INLT 1600 79 N/A 3/ 5 3/ 5 HATTERAS CG 1600 77 83 10/ 12/ 19 1020.9 DIAMOND BUOY 1550 84 85 100/ 10/ 12 1020.6 2/ 8 2/ 8 CAPE LOOKOUT 1600 83 40/ 8/ 9 1020.1 BEAUFORT LAB 1600 83 81 10/ 5/ 8 1019.9 30 SE NEW RVR IN 1608 83 84 40/ 10/ 14 1020.1 30 SE NEW RVR IN 1555 84 N/A 3/ 8 27 SE WRIGHTSVLE 1608 82 83 10/ 12/ 17 1020.3 5 SE WRIGHTSVLE 1608 82 83 50/ 14/ 17 1021.3 225 S CAPE HAT 1550 83 84 60/ 8/ 10 1018.5 3/ 8 3/ 8 41 SE CHARLESTON 1550 83 85 50/ 12/ 14 1018.7 3/ 8 2/ 8 $$

USA.gov is the U.S. government's official web portal to all federal, state and local government web resources and services.